Regional Weather Roundup
Issued by NWS

Home | Current Version | Previous Version | Text Only | Print | Product List | Glossary Off
Versions: 1 2 3 4 5 6 7 8 9 10 11 12 13 14 15 16 17 18 19 20 21 22 23 24 25 26 27 28 29 30 31 32 33 34 35 36 37 38 39 40 41 42 43 44 45 46 47 48 49 50

000
ASUS43 KLOT 081312
RWRIL

ILLINOIS REGIONAL WEATHER ROUNDUP
NATIONAL WEATHER SERVICE CHICAGO/ROMEOVILLE IL
700 AM CST THU DEC 08 2016

NOTE: "FAIR" INDICATES FEW OR NO CLOUDS BELOW 12,000 FEET WITH NO
SIGNIFICANT WEATHER AND/OR OBSTRUCTIONS TO VISIBILITY.

* THESE STATIONS ARE NOT UNDER NWS QUALITY CONTROL. THEY ALSO MAY NOT
  REPORT WEATHER SUCH AS PRECIPITATION OR FOG.

ILZ001-002-007-009-015-016-024-081400-
NORTHWEST ILLINOIS

CITY           SKY/WX    TMP DP  RH WIND       PRES   REMARKS
MOLINE         MOCLDY    16   6  65 W20G33    30.34R WCI  -1
STERLING*      FLURRIES  15   9  76 W23G29    30.29R WCI  -3
SAVANNA*       CLOUDY    15   8  71 W14G26    30.30R WCI   1
$$

ILZ003-004-008-010-011-017-018-081400-
NORTH CENTRAL ILLINOIS

CITY           SKY/WX    TMP DP  RH WIND       PRES   REMARKS
ROCKFORD       FLURRIES  16   8  71 W18       30.26R WCI   0
FREEPORT*      CLOUDY    14   8  75 W17G24    30.26R WCI  -2
ROCHELLE*      CLOUDY    15   9  76 W22G29    30.26R WCI  -2
DE KALB*       CLOUDY    15  10  79 W20G25    30.22R WCI  -2
$$

ILZ005-006-012>014-019>023-081400-
NORTHEAST ILLINOIS

CITY           SKY/WX    TMP DP  RH WIND       PRES   REMARKS
CHICAGO-OHARE  FLURRIES  19  11  70 W20G28    30.20R WCI   3
CHICAGO-MIDWAY FLURRIES  21  11  65 W16G24    30.21R WCI   7
AURORA         MOCLDY    17  10  74 W17G26    30.25R WCI   1
LANSING*       CLOUDY    20  14  77 W25       30.22R WCI   3
JOLIET*        CLOUDY    20  12  72 W13G26    30.26R WCI   7
WAUKEGAN       CLOUDY    17   9  70 W10G20    30.17R WCI   5
DUPAGE AIRPORT MOCLDY    16   7  67 W16G31    30.22R WCI   1
KANKAKEE*      FLURRIES  21  13  72 W21G26    30.27R WCI   5
WHEELING       FLURRIES  19  10  68 W17G23    30.20R WCI   4
MORRIS*        MOCLDY    18  11  75 W17G26    30.26R WCI   2
ROMEOVILLE*    CLOUDY    17  13  82 W20G32    30.24R WCI   1
NORTHERLY ISL    N/A     21  12  68 SW17        N/A  WCI   7
$$

LMZ740>746-081400-
SOUTHERN LAKE MICHIGAN

STATION/POSITION SKY/WX   TEMP    WIND        PRES    VSBY  WAVE
                          AIR SEA DIR/SP/G                  HT/PER
                          (F)     (DEG/KT/KT) (MB)    (MI)  (FT/S)
HARRISON CRIB              22     260/ 25/ 30   N/A
BURNHAM HARBOR             21     240/ 11/ 18   N/A
CALUMET HARBOR             20     260/  9/ 15 1022.4R
BURNS HARBOR               24     260/ 29/ 35 1022.4R
MICHIGAN CITY              24     250/ 25/ 31   N/A
$$

ILZ025>027-034>036-040-047-049-050-058-095>099-081400-
WEST-CENTRAL ILLINOIS

CITY           SKY/WX    TMP DP  RH WIND       PRES   REMARKS
QUINCY         CLEAR     16   9  74 W17G23    30.41R WCI   0
GALESBURG*     CLOUDY    17  11  77 W18       30.35R WCI   1
MACOMB*        CLOUDY    18  12  78 W23G29    30.40R WCI   0
JACKSONVILLE*  CLEAR     17  11  75 W18       30.40R WCI   1
PITTSFIELD*    CLEAR     18  11  72 W10G16    30.43R WCI   7
$$

ILZ028>032-037-038-041>044-048-051>054-059>061-081400-
CENTRAL ILLINOIS

CITY           SKY/WX    TMP DP  RH WIND       PRES   REMARKS
PONTIAC        CLOUDY    21  13  73 W21G29    30.30R WCI   5
BLOOMINGTON    FLURRIES  18  12  77 W20       30.31R WCI   2
DECATUR        MOCLDY    19  12  74 W12       30.35R WCI   7
PEORIA         CLOUDY    19  10  68 W13G24    30.35R WCI   6
LACON*         CLEAR     17  10  74 W12G17    30.32R WCI   4
LINCOLN*       CLOUDY    20  13  73 W10G21    30.36R WCI   9
SPRINGFIELD    CLEAR     20  11  68 W16       30.37R WCI   6
TAYLORVILLE    CLEAR     19  12  74 W16G22    30.38R WCI   4
$$

ILZ033-039-045-046-055>057-062-063-081400-
EAST-CENTRAL ILLINOIS

CITY           SKY/WX    TMP DP  RH WIND       PRES   REMARKS
CHAMPAIGN      CLOUDY    20  13  74 W22       30.32R WCI   3
RANTOUL*       CLOUDY    21  15  75 W22       30.30R WCI   5
MATTOON        CLEAR     19  12  74 W12       30.34R WCI   7
PARIS*         PTCLDY    20  15  81 W16G26    30.34R WCI   6
$$

ILZ079-100>102-081400-
SOUTHWEST ILLINOIS

CITY           SKY/WX    TMP DP  RH WIND       PRES   REMARKS
ALTON          CLEAR     19  12  73 W12       30.43R WCI   7
BELLEVILLE     CLEAR     21  11  65 NW12      30.43R WCI   9
CAHOKIA*       CLEAR     23  10  57 W12G21    30.45R WCI  12
SPARTA*        CLEAR     22  13  67 W7        30.45R WCI  14
$$

ILZ064>066-069>071-074>076-080>082-084>086-088>090-092>094-081400-
SOUTH-CENTRAL ILLINOIS

CITY           SKY/WX    TMP DP  RH WIND       PRES   REMARKS
CARBONDALE     CLEAR     23  12  62 NW8       30.44R WCI  14
CAIRO*         PTCLDY    26  13  58 NW9       30.46R WCI  16
EFFINGHAM*     PTCLDY    22  16  79 W13G18    30.40R WCI   9
MARION         CLEAR     25  14  63 W9        30.44R WCI  15
CENTRALIA*     CLEAR     23  15  71 W15       30.41R WCI  10
SALEM*         CLEAR     24  14  65 W15       30.40R WCI  11
METROPOLIS*    CLEAR     26  17  67 CALM      30.45R
$$

ILZ067-068-072-073-078-083-087-091-081400-
SOUTHEAST ILLINOIS

CITY           SKY/WX    TMP DP  RH WIND       PRES   REMARKS
LAWRENCEVILLE  PTCLDY    23  14  68 W12       30.38R WCI  12
FLORA*         CLEAR     24  14  66 W14G20    30.40R WCI  12
FAIRFIELD*     CLEAR     24  14  68 W5        30.40R WCI  18
HARRISBURG*    CLEAR     25  15  65 W10G18    30.42S WCI  14
ROBINSON*      CLEAR     22  14  72 W16       30.38R WCI   8
CARMI*         PTCLDY    24  16  70 W10G16    30.41R WCI  14
$$

ABBREVIATIONS USED IN REMARKS
   TC - TEMPERATURE IN CELSIUS
  WCI - WIND CHILL INDEX
   HX - HEAT INDEX
  VSB - VISIBILITY
$$




USA.gov is the U.S. government's official web portal to all federal, state and local government web resources and services.